This is the latest recevied weather packets stored in our database for station/object KE5OYL. If no packets are shown the sender has not sent any weather packets the latest 10 day(s).
| Time | Temp. | Humidity | Pressure | Rain* | Wind** | Luminosity | Snow |
|---|---|---|---|---|---|---|---|
| 1787868837 | 36.67° C | 38% | 1013.5 hPa | 0 mm | - | 386 W/m² | - |
| 1787868536 | 36.67° C | 40% | 1013.4 hPa | 0 mm | - | 394 W/m² | - |
| 1787868236 | 36.67° C | 39% | 1013.6 hPa | 0 mm | - | 387 W/m² | - |
| 1787867930 | 36.67° C | 40% | 1013.7 hPa | 0 mm | - | 440 W/m² | - |
| 1787867626 | 36.67° C | 40% | 1013.5 hPa | 0 mm | - | 410 W/m² | - |
| 1787867320 | 36.67° C | 39% | 1013.5 hPa | 0 mm | - | 395 W/m² | - |
| 1787867017 | 36.67° C | 40% | 1013.6 hPa | 0 mm | - | 446 W/m² | - |
| 1787866712 | 36.67° C | 40% | 1013.9 hPa | 0 mm | - | 293 W/m² | - |
| 1787866410 | 37.22° C | 40% | 1013.8 hPa | 0 mm | - | 392 W/m² | - |
| 1787866105 | 36.67° C | 41% | 1014 hPa | 0 mm | - | 471 W/m² | - |
| 1787865800 | 36.67° C | 40% | 1014.1 hPa | 0 mm | - | 523 W/m² | - |
| 1787865495 | 37.22° C | 38% | 1014.2 hPa | 0 mm | - | 476 W/m² | - |
| 1787865190 | 37.22° C | 39% | 1014.3 hPa | 0 mm | - | 581 W/m² | - |
| 1787864887 | 36.67° C | 39% | 1014.2 hPa | 0 mm | - | 574 W/m² | - |
| 1787864586 | 36.67° C | 39% | 1014.3 hPa | 0 mm | - | 614 W/m² | - |
| 1787864281 | 36.67° C | 38% | 1014.1 hPa | 0 mm | - | 676 W/m² | - |
| 1787863976 | 37.22° C | 38% | 1014.2 hPa | 0 mm | - | 599 W/m² | - |
| 1787863674 | 36.67° C | 38% | 1014.2 hPa | 0 mm | - | 428 W/m² | - |
| 1787863373 | 36.67° C | 37% | 1014.5 hPa | 0 mm | - | 696 W/m² | - |
| 1787863069 | 36.67° C | 36% | 1014.5 hPa | 0 mm | - | 670 W/m² | - |
| 1787862764 | 37.22° C | 36% | 1014.4 hPa | 0 mm | - | 661 W/m² | - |
| 1787862463 | 37.22° C | 37% | 1014.3 hPa | 0 mm | - | 559 W/m² | - |
| 1787862159 | 37.22° C | 38% | 1014.5 hPa | 0 mm | - | 717 W/m² | - |
| 1787861854 | 36.67° C | 37% | 1014.6 hPa | 0 mm | - | 757 W/m² | - |
| 1787861552 | 36.11° C | 40% | 1014.5 hPa | 0 mm | - | 406 W/m² | - |
* Rain latest hour (hover to see other rain measurements)
** Current wind speed in m/s (hover to see current wind gust speed)